CST,Max TemperatureF,Mean TemperatureF,Min TemperatureF,Max Dew PointF,MeanDew PointF,Min DewpointF,Max Humidity, Mean Humidity, Min Humidity, Max Sea Level PressureIn, Mean Sea Level PressureIn, Min Sea Level PressureIn, Max VisibilityMiles, Mean VisibilityMiles, Min VisibilityMiles, Max Wind SpeedMPH, Mean Wind SpeedMPH, Max Gust SpeedMPH,PrecipitationIn, CloudCover, Events, WindDirDegrees
2011-1-1,52,38,24,49,25,15,89,67,44,30.27,30.09,29.81,10,10,10,21,7,26,0.01,3,,300
2011-1-2,35,28,20,20,18,15,84,66,47,30.40,30.33,30.28,10,10,10,9,4,15,0.00,0,,236
2011-1-3,41,32,22,27,24,20,88,69,50,30.32,30.21,30.09,10,10,10,17,6,21,0.00,0,,183
2011-1-4,46,36,25,28,23,18,92,62,31,30.16,30.11,30.07,10,10,10,14,4,17,0.00,0,,327
2011-1-5,40,32,24,26,23,19,92,68,44,30.09,29.96,29.87,10,10,10,10,2,14,0.00,6,,77
2011-1-6,47,34,20,31,26,20,88,69,49,29.88,29.81,29.70,10,10,8,17,6,23,0.00,3,,285
2011-1-7,47,39,31,31,28,22,92,72,52,29.68,29.58,29.48,10,10,8,29,9,38,0.00,7,,313
2011-1-8,34,24,14,27,11,4,82,61,40,30.19,29.97,29.65,10,10,10,23,11,30,T,3,,349
2011-1-9,30,22,14,15,11,8,80,62,43,30.33,30.27,30.22,10,10,10,17,9,22,0.00,3,,81
2011-1-10,34,32,29,22,18,14,63,56,49,30.26,30.20,30.14,10,10,10,16,7,22,0.00,8,,72
2011-1-11,32,27,21,27,22,10,92,75,57,30.44,30.20,30.11,10,6,1,26,13,32,0.05,7,Snow,274
2011-1-12,28,21,14,14,10,6,80,65,50,30.64,30.56,30.43,10,10,10,23,9,26,T,3,,312
2011-1-13,30,20,9,19,12,5,83,67,50,30.69,30.57,30.41,10,10,3,13,5,17,0.00,1,,218
2011-1-14,42,31,20,26,21,17,84,65,45,30.42,30.34,30.25,10,10,10,12,6,16,0.00,0,,197
2011-1-15,50,40,29,31,27,22,78,64,49,30.23,30.18,30.10,10,9,6,16,8,20,0.00,3,,249
2011-1-16,36,30,23,22,20,18,81,67,52,30.26,30.20,30.09,8,7,5,13,6,16,0.00,0,,31
2011-1-17,46,34,22,45,35,19,100,89,78,30.08,29.82,29.71,8,2,0,14,7,22,0.06,7,Fog-Rain,156
2011-1-18,45,39,32,45,33,27,89,84,79,30.02,29.90,29.72,7,5,2,20,6,24,0.00,8,Rain,336
2011-1-19,34,32,29,27,23,21,85,73,61,30.17,30.12,30.03,10,9,5,14,6,16,0.00,8,,359
2011-1-20,31,16,1,25,18,-1,95,84,72,30.18,30.13,30.09,10,3,0,21,6,24,0.14,6,Fog-Snow,359
2011-1-21,22,10,-2,12,5,-5,100,78,56,30.22,30.16,30.05,10,7,0,8,2,10,0.00,2,Fog-Snow,225
2011-1-22,31,25,18,25,18,9,92,77,62,30.08,30.02,29.99,10,9,6,10,4,13,0.00,5,,168
2011-1-23,35,30,25,32,28,24,96,83,70,30.21,30.12,30.09,8,4,1,14,7,17,0.02,6,Snow,108
2011-1-24,42,37,32,37,34,30,100,91,82,30.15,30.09,30.05,9,5,0,10,3,13,0.00,8,Fog,190
2011-1-25,34,32,29,30,27,24,96,83,69,30.16,30.10,30.02,10,6,0,15,8,18,T,4,Fog,359
2011-1-26,45,33,21,29,25,21,92,71,49,30.13,30.08,30.01,10,8,4,12,5,15,0.00,2,,337
2011-1-27,46,34,21,33,27,21,96,77,58,30.09,29.98,29.83,10,6,2,16,5,20,0.00,1,,233
2011-1-28,49,37,25,36,30,23,92,74,56,30.03,29.94,29.88,10,9,5,12,4,15,0.00,0,,222
2011-1-29,59,43,27,38,31,25,100,70,40,29.99,29.93,29.86,10,6,0,12,4,14,0.00,0,Fog,320
2011-1-30,52,41,30,33,30,27,92,67,42,30.18,30.09,29.96,10,7,3,17,10,22,0.00,3,,20
2011-1-31,41,38,35,37,32,27,85,75,64,30.17,30.06,29.98,10,7,2,16,6,18,0.01,8,Rain,37